星链-37530(STARLINK-37530)

导读

STARLINK-37530(NORAD编号69131)是美国SpaceX公司星链(Starlink)星座中的一颗第二代Mini版本低轨互联网通信卫星。星链计划旨在构建覆盖全球的低轨卫星互联网系统,提供高带宽、低时延的天基互联网接入服务。该卫星遵循Starlink 2.0Mini版本的命名规则,编号区间从30000起始,采用一箭多星方式由猎鹰9号火箭发射,运行于近地轨道,为全球用户特别是偏远地区提供互联网连接服务,同时也支持部分特殊场景下的通信保障需求。

基本信息
目录编号:
69131
目录名称:
STARLINK-37530
国际标识:
2026-110H
轨道中心:
EARTH
卫星名称:
星链-37530
卫星全名:
星链-37530(STARLINK-37530)
卫星状态:
在轨 (已飞行116 天)
发射日期:
2026-05-20 UTC
国别 :
美国 (US)
星等 :
--
该卫星已列入 空间交会检测服务 Space Conjunction Data Service (SCDS) ,当前飞行风险评估等级: 无高风险
轨道信息
数据来源 国际轨道数据
星历时间: 2026-09-13T09:20:54+0800
9小时前
查看轨道信息
半长轴: 6843.672km
偏心率: 0.0001073
轨道倾角: 97.285°
近地点辐角 102.180°
升交点赤经 91.194°
平近点角 257.957°
近地点: 464.8km
远地点: 466.27km
周期: 93.906分钟
每日圈数: 15.334479
详细信息
固有亮度:
5
最大亮度:
2.5
卫星平台:
Starlink V1.0
覆盖范围:
全球
运营商:
太空探索技术公司
运营商所在国:
美国
制造商(研发单位):
太空探索技术公司
制造商所在国:
美国
使用方式:
暂无
卫星简介
Starlink 计划是 SpaceX 推出的全球卫星互联网项目,通过发射低轨道卫星,为全球尤其是偏远地区提供高速、低延迟的互联网服务。自 2019 年起,Starlink 已部署数千颗卫星,旨在缩小全球数字鸿沟,推动互联网普及。该项目还为军事、航空等行业提供通信支持,带来广泛经济效益。
2D轨道图
3D轨道图
轨道高度分析图
轨道倾角分析图
轨道综合分析图
查看轨道综合分析图
交会数据列表
事件ID 空间交会对象 最接近时刻(TCA) 交会距离 交会风险概率(CRP) 交会风险指数(CRI) 操作
CDM_260914-001103-945006-913123
2026-09-14T
00:11:38+0000
1.516 km
极远距离
6.560553E-6 低风险 0.51
CDM_260913-131704-775006-913122
2026-09-13T
13:17:04+0000
1.816 km
极远距离
2.562641E-6 低风险 0.43
与全量物体交会距离演化趋势
与全量物体交会风险概率演化趋势